User: anonymous   Login
Location: West Cummington
(42.4920°N, 72.9680°W)
Time: 19:47:49
(UTC-04:00)
Language:

Cosmos 841 Rocket - Orbit

View from above orbital plane
View from above orbital plane
View from above satellite
View from above satellite

Ground track
Ground track

The orbit data is extracted from the following two-line orbital elements,

1 09023U 76069B   16238.41116437  .00000027  00000-0  16974-4 0  9999
2 09023  74.0427 282.6203 0017133 165.1139 195.0524 14.39506072102268
Epoch (UTC): 25 August 2016 09:52:04
Eccentricity: 0.0017133
inclination: 74.0427°
perigee height: 748 km
apogee height: 772 km
right ascension of ascending node: 282.6203°
argument of perigee: 165.1139°
revolutions per day: 14.39506072
mean anomaly at epoch: 195.0524°
orbit number at epoch: 10226

The dashed part of the orbit path shows where the satellite is in the earth's shadow,  

DLR